Regional Weather Roundup
Issued by NWS

Home | Current Version | Previous Version | Text Only | Print | Product List | Glossary On
Versions: 1 2 3 4 5 6 7 8 9 10 11 12 13 14 15 16 17 18 19 20 21 22 23 24 25 26 27 28 29 30 31 32 33 34 35 36 37 38 39 40 41 42 43 44 45 46 47 48 49 50
000
ASUS44 KLUB 292001
RWRTX
WEST TEXAS WEATHER ROUNDUP
NATIONAL WEATHER SERVICE LUBBOCK TX
300 PM CDT FRI APR 29 2016

NOTE: "FAIR" INDICATES FEW OR NO CLOUDS BELOW 12,000 FEET WITH NO
SIGNIFICANT WEATHER AND/OR OBSTRUCTIONS TO VISIBILITY.

TXZ004-006>008-010-012-014-016-OKZ002-292100-
TEXAS PANHANDLE/OKLAHOMA PANHANDLE

CITY           SKY/WX    TMP DP  RH WIND       PRES   REMARKS
AMARILLO       CLOUDY    56  48  74 N6        29.76R
BORGER         CLOUDY    50  46  86 NE8       29.76R
CANADIAN       CLOUDY    50  49  95 NE13      29.73F FOG
DALHART        LGT RAIN  48  45  89 N8        29.81S FOG
DUMAS          CLOUDY    46  45  99 N5        29.79R FOG
GUYMON         LGT RAIN  48  45  89 E8        29.78S
HEREFORD       PTSUNNY   58  51  78 N14G21    29.79S
$$

TXZ026-029-035-045-048-292100-
SOUTHERN PANHANDLE/SOUTH PLAINS/ROLLING PLAINS

CITY           SKY/WX    TMP DP  RH WIND       PRES   REMARKS
CHILDRESS      CLOUDY    66  55  67 N13       29.66F
SEMINOLE       SUNNY     79  17  10 W22G39    29.73F
LUBBOCK        MOSUNNY   77  34  21 W20G29    29.68F
SNYDER           N/A     83  36  18 SW17G28   29.68F
$$

TXZ052-054-060>062-072-078-127-140-154-169-292100-
PERMIAN BASIN/CONCHO VALLEY/BIG COUNTRY/EDWARDS PLATEAU

CITY           SKY/WX    TMP DP  RH WIND       PRES   REMARKS
ABILENE        SUNNY     86  46  24 W15       29.63F
BIG SPRING     SUNNY     81  33  17 SW12G28   29.71F
BROWNWOOD      CLOUDY    75  68  78 CALM      29.61F
JUNCTION       SUNNY     82  69  64 S13       29.65F
MIDLAND        SUNNY     85  29  13 SW28G33   29.71F
ODESSA         SUNNY     85  23  10 W21G33    29.72F
SAN ANGELO     MOSUNNY   87  46  24 NW13      29.65F
WINK           SUNNY     84  15   7 W25G39    29.71F
$$

TXZ055-058-074-075-080-082-292100-
FAR WEST/SOUTHWEST MOUNTAINS/TRANS PECOS

CITY           SKY/WX    TMP DP  RH WIND       PRES   REMARKS
ALPINE         SUNNY     79  21  11 W26G38    29.88F
DRYDEN           N/A     91  37  15 N6        29.66F
EL PASO        MOSUNNY   69  17  13 W15G21    29.86F
FORT STOCKTON  SUNNY     82  31  15 MISG      29.74F
MARFA          SUNNY     72  23  16 W24G31    29.89
PRESIDIO       FAIR      84  27  12 MISG      29.77F
$$

TXZ014-016-019-021>030-083-292100
TEXAS TECH WEST TEXAS MESONET/TEXAS PANHANDLE/NORTHERN SOUTH PLAINS

CITY           SKY/WX    TMP DP  RH WIND       PRES   REMARKS
ABERNATHY 5ENE   N/A     74  38  27 W17G28    29.72F
AMARILLO 9NNE    N/A     52  49  87 N7        29.78R
AMARILLO 7SSE    N/A     60  51  71 W8        29.77S
AMHERST 1NE      N/A     70  42  36 W12G18    29.73F
BOOTLEG 11WNW    N/A     52  44  75 W13       29.83S
CANADIAN 6E      N/A     48  46  91 NE14      29.74R
CAPROCK CYN SP   N/A     65  55  69 N1        29.71F
CHILDRESS 2NNE   N/A     64  56  75 N13       29.67F
CLARENDON 2WSW   N/A     60  52  75 N7        29.73S
CLAUDE 12SW      N/A     64  52  64 SW7       29.74R
DIMMITT 2NE      N/A     65  44  47 W12G20    29.77F
FLOYDADA 2NNE    N/A     76  34  22 SW21G29   29.70F
FRIONA 2NE       N/A     61  48  62 NW12      29.78F
GOODLETT 3W      N/A     68  58  69 NW13      29.65R
HART 3N          N/A     67  43  42 W12G18    29.75F
HEREFORD 2NW     N/A     57  47  70 NW9       29.80F
MCLEAN 1E        N/A     53  49  88 N10G16    29.71F
MEMPHIS 1NE      N/A     64  55  74 N9        29.70F
MULESHOE 2SSW    N/A     70  40  34 W18       29.75F
OLTON 6S         N/A     71  41  33 W14G26    29.73F
PALO DURO SP     N/A     65  50  58 W7        29.76S
PAMPA 2E         N/A     50  48  92 NE12      29.73F
PLAINVIEW 1S     N/A     70  40  33 W17G28    29.72F
SILVERTON 7ESE   N/A     69  55  62 NW6       29.70F
TULIA 2ENE       N/A     66  50  55 W14G23    29.74F
TURKEY 2WSW      N/A     67  56  68 N6        29.70F
UMBARGER 3NNE    N/A     56  50  79 W13       29.80R
$$

TXZ033>036-039>041-045>048-292100
TEXAS TECH WEST TEXAS MESONET/SOUTH PLAINS

CITY           SKY/WX    TMP DP  RH WIND       PRES   REMARKS
AIKEN 3WSW       N/A     73  44  36 W13       29.73S
ANDREWS 2NE      N/A     80  13   8 W22G30    29.75S
ANTON 6SSW       N/A     78  19  11 SW18G26   29.70F
BROWNFIELD 2S    N/A     78  12   8 W25G38    29.72F
DENVR CTY 7WNW   N/A     76  12   8 SW28G44   29.74F
GAIL 2ESE        N/A     84  30  14 W22G30    29.68F
LAMESA 2SE       N/A     81  24  12 SW20G28   29.71F
LEVELLAND 4S     N/A     78  14   9 SW23G31   29.71F
LUBBOCK 3WNW     N/A     78  23  13 W22G35    29.70F
MORTON 1ENE      N/A     76  22  13 W17       29.72F
ODONNELL 1N      N/A     82  17   9 SW28G37   29.71F
PLAINS 3N        N/A     76  10   8 SW24G33   29.73F
RALLS 1SE        N/A     78  36  21 W16G23    29.71F
REESE CENTER     N/A     77  17  10 W25G33    29.70F
SEAGRAVES 1SW    N/A     78  13   8 W24G33    29.73F
SEMINOLE 2NNE    N/A     78  13   8 SW23G31   29.73F
SLATON 2NE       N/A     80  20  10 SW25G39   29.69F
SNYDER 3E        N/A     84  34  16 SW15G24   29.68F
SUNDOWN 8SW      N/A     77   8   7 SW26G38   29.72F
TAHOKA 3NNE      N/A     81  15   8 W21       29.70F
WOLFFORTH 6SSW   N/A     80   9   6 SW33G43   29.70F
$$

TXZ031-032-036>038-042>044-292100-
TEXAS TECH WEST TEXAS MESONET/ROLLING PLAINS

CITY           SKY/WX    TMP DP  RH WIND       PRES   REMARKS
ASPERMONT 3NE    N/A     86  40  19 W16G24    29.64F
FLUVANNA 3WNW    N/A     84  26  12 SW23G31   29.68F
GRAHAM 5SSW      N/A     80  20  10 W22G37    29.68F
GUTHRIE 10WSW    N/A     84  35  17 W21G30    29.64F
HASKELL 1NW      N/A     88  34  14 W18G25    29.62S
JAYTON 1SSE      N/A     84  35  17 W15G26    29.65F
KNOX CITY 3NW    N/A     88  40  18 W16G24    29.61S
LK A HENRY 1NW   N/A     85  26  11 W16       29.66F
NORTHFIELD 1S    N/A     68  59  71 NW12      29.69S
ODELL 4ENE       N/A     72  65  78 NW15      29.60F
PADUCAH 10SW     N/A     75  59  57 N16G23    29.66F
POST 1NE         N/A     83  18   8 W21G30    29.66F
RRING SPRGS 3N   N/A     73  59  61 N10       29.68F
SEYMOUR 3NW      N/A     87  55  33 W21G28    29.58R
SPUR 1W          N/A     81  35  18 W14G26    29.66F
WEINERT 2NNE     N/A     88  42  20 NW12      29.61S
$$

TXZ052-054-060>062-072-078-127-140-154-169-292100-
TEXAS TECH WEST TEXAS MESONET/PERMIAN BASIN/
CONCHO VALLEY/BIG COUNTRY/EDWARDS PLATEAU

CITY           SKY/WX    TMP DP  RH WIND       PRES   REMARKS
COYANOSA 2N      N/A     83  27  12 W16       29.74F
JUNCTION 1SSW    N/A     83  71  67 S8        29.67F
MERTZON 3NNE     N/A     87  47  25 NW9       29.69F
SAN ANGELO 7NW   N/A     86  41  20 W8G15     29.66F
STRLNG CT 4WSW   N/A     85  38  19 SW10      29.70F
ST LAWRNCE 5SW   N/A     85  31  14 W17G24    29.71F
SWEETWATR 11SW   N/A     81  40  23 W13       29.71S
WALL 1E          N/A     87  43  21 W6        29.67F
$$

TXZ055-058-074-075-080-082-292100-
TEXAS TECH WEST TEXAS MESONET/FAR WEST/SOUTHWEST MOUNTAINS/TRANS PECOS

CITY           SKY/WX    TMP DP  RH WIND       PRES   REMARKS
PRSMN GAP BBNP   N/A     87  25  10 S13       29.73F
GUADLPE MTN NP   N/A     62  12  14 SW14G22   29.90S
$$




USA.gov is the U.S. government's official web portal to all federal, state and local government web resources and services.